K9BM Weather Reports


Display with metric or nautical units.
time (UTC)temp
F
wind
direction
speed
MPH
gust
MPH
rain 1hr
in
rain 24hr
in
rain mn
in
humidity
%
barometer
mb
20260508181505 64 286 12.0 17.0 0.00 0.02 0.00 42 1009.2
20260508181005 64 282 13.0 18.0 0.00 0.02 0.00 41 1009.3
20260508180005 64 271 13.0 25.0 0.00 0.02 0.00 42 1009.4
20260508175505 64 276 13.0 25.0 0.00 0.02 0.00 41 1009.6
20260508174505 64 284 14.0 24.0 0.00 0.02 0.00 42 1009.8
20260508173505 63 272 13.0 20.0 0.00 0.02 0.00 42 1010.0
20260508173005 64 282 14.0 20.0 0.00 0.02 0.00 40 1010.1
20260508172505 63 289 16.0 20.0 0.00 0.02 0.00 42 1010.1
20260508172005 63 279 15.0 22.0 0.00 0.02 0.00 43 1010.2
20260508171504 63 286 12.0 22.0 0.00 0.02 0.00 45 1010.2
20260508171005 63 285 13.0 22.0 0.00 0.02 0.00 44 1010.1
20260508170005 62 279 13.0 20.0 0.00 0.02 0.00 45 1010.1
20260508165505 62 285 13.0 17.0 0.00 0.02 0.00 45 1010.2
20260508164505 61 257 13.0 18.0 0.00 0.02 0.00 48 1010.3
20260508164005 61 255 12.0 17.0 0.00 0.02 0.00 49 1010.3
20260508163505 61 258 12.0 17.0 0.00 0.02 0.00 50 1010.4
20260508163005 60 286 12.0 16.0 0.00 0.02 0.00 51 1010.3
20260508162504 60 272 13.0 18.0 0.00 0.02 0.00 52 1010.4
20260508161505 59 263 11.0 20.0 0.00 0.02 0.00 53 1010.4
20260508161005 60 252 14.0 20.0 0.00 0.02 0.00 52 1010.3
20260508160005 59 261 12.0 17.0 0.00 0.02 0.00 55 1010.4
20260508155505 59 250 11.0 16.0 0.00 0.02 0.00 55 1010.4
20260508155005 58 268 12.0 16.0 0.00 0.02 0.00 55 1010.5
20260508154505 58 270 10.0 14.0 0.00 0.02 0.00 55 1010.6
20260508153505 57 245 5.0 9.0 0.00 0.02 0.00 57 1010.7
20260508153004 57 262 4.0 8.0 0.00 0.02 0.00 58 1010.8
20260508152504 56 241 3.0 8.0 0.00 0.02 0.00 59 1010.9
20260508152004 56 254 5.0 8.0 0.00 0.02 0.00 62 1010.9
20260508151505 55 265 3.0 9.0 0.00 0.02 0.00 61 1011.0
20260508151004 55 267 6.0 12.0 0.00 0.02 0.00 61 1011.1
20260508150005 54 268 9.0 12.0 0.00 0.02 0.00 61 1011.2
20260508145505 54 254 9.0 12.0 0.00 0.02 0.00 59 1011.3
20260508145005 53 240 6.0 9.0 0.00 0.02 0.00 60 1011.4
20260508144504 53 252 6.0 9.0 0.00 0.02 0.00 62 1011.4
20260508144005 53 271 6.0 10.0 0.00 0.02 0.00 64 1011.4
20260508143505 53 265 7.0 12.0 0.00 0.02 0.00 64 1011.4
20260508142505 52 251 7.0 12.0 0.00 0.02 0.00 64 1011.5
20260508142005 51 241 7.0 10.0 0.00 0.02 0.00 65 1011.5
20260508141005 49 230 6.0 9.0 0.00 0.02 0.00 69 1011.6
20260508135508 49 212 6.0 10.0 0.00 0.02 0.00 68 1011.6
20260508135005 49 227 7.0 12.0 0.00 0.02 0.00 68 1011.7
20260508134505 49 233 6.0 12.0 0.00 0.02 0.00 68 1011.6
20260508134005 48 232 7.0 10.0 0.00 0.02 0.00 69 1011.7
20260508133005 48 218 6.0 9.0 0.00 0.02 0.00 69 1011.6
20260508132504 48 225 6.0 9.0 0.00 0.02 0.00 69 1011.6
20260508132005 49 213 6.0 9.0 0.00 0.02 0.00 68 1011.7
20260508131005 49 231 5.0 9.0 0.00 0.02 0.00 67 1011.6
20260508130005 50 228 6.0 12.0 0.00 0.02 0.00 67 1011.5
20260508125505 49 225 7.0 12.0 0.00 0.02 0.00 67 1011.4
20260508124504 48 228 7.0 12.0 0.00 0.02 0.00 69 1011.3
20260508124004 48 226 6.0 10.0 0.00 0.02 0.00 70 1011.3
20260508123505 48 224 7.0 12.0 0.00 0.02 0.00 70 1011.3
20260508122505 47 222 7.0 12.0 0.00 0.02 0.00 71 1011.2
20260508122005 47 200 9.0 12.0 0.00 0.02 0.00 72 1011.1
20260508121505 47 199 7.0 14.0 0.00 0.02 0.00 72 1011.1
20260508120005 48 212 6.0 12.0 0.00 0.02 0.00 71 1011.2
20260508115504 48 222 6.0 13.0 0.00 0.02 0.00 71 1011.2
20260508115005 47 204 9.0 13.0 0.00 0.02 0.00 72 1011.1
20260508114504 47 208 7.0 12.0 0.00 0.02 0.00 73 1011.1
20260508114005 47 206 7.0 13.0 0.00 0.02 0.00 74 1011.0
20260508113504 47 211 8.0 13.0 0.00 0.02 0.00 74 1011.1
20260508113005 47 204 10.0 13.0 0.00 0.02 0.00 74 1011.0
20260508112504 47 206 8.0 13.0 0.00 0.02 0.00 74 1011.1
20260508112004 47 205 8.0 13.0 0.00 0.02 0.00 74 1011.0
20260508111505 47 208 7.0 13.0 0.00 0.02 0.00 74 1011.1
20260508110004 47 226 5.0 9.0 0.00 0.02 0.00 74 1011.1
20260508105504 47 237 6.0 9.0 0.00 0.02 0.00 73 1011.2
20260508104005 47 244 7.0 12.0 0.00 0.02 0.00 73 1011.2
20260508103505 47 236 8.0 13.0 0.00 0.02 0.00 72 1011.2
20260508103005 47 241 9.0 13.0 0.00 0.02 0.00 73 1011.2
20260508102504 47 233 10.0 13.0 0.00 0.02 0.00 73 1011.1
20260508102005 46 233 8.0 12.0 0.00 0.02 0.00 74 1011.0
20260508101504 46 233 8.0 12.0 0.00 0.02 0.00 75 1010.9
20260508101005 46 227 7.0 12.0 0.00 0.02 0.00 76 1010.9
20260508100004 44 233 7.0 9.0 0.00 0.02 0.00 78 1010.9
20260508095504 45 234 5.0 7.0 0.00 0.02 0.00 78 1010.9
20260508095005 45 233 5.0 9.0 0.00 0.02 0.00 77 1010.9
20260508094505 46 231 5.0 9.0 0.00 0.02 0.00 76 1010.9
20260508094005 46 242 6.0 10.0 0.00 0.02 0.00 75 1010.9
20260508093504 46 231 7.0 10.0 0.00 0.02 0.00 75 1010.8
20260508093004 46 242 7.0 12.0 0.00 0.02 0.00 75 1010.8
20260508092504 47 235 6.0 12.0 0.00 0.02 0.00 75 1010.8
20260508092004 47 238 7.0 12.0 0.00 0.02 0.00 74 1010.9
20260508091005 47 237 9.0 12.0 0.00 0.02 0.00 74 1010.8
20260508090005 47 234 9.0 12.0 0.00 0.02 0.00 74 1010.8
20260508085504 47 238 7.0 10.0 0.00 0.02 0.00 75 1010.8
20260508085005 47 238 6.0 10.0 0.00 0.02 0.00 75 1010.8
20260508084505 47 230 6.0 10.0 0.00 0.02 0.00 75 1010.7
20260508083005 46 238 6.0 12.0 0.00 0.02 0.00 76 1010.8
20260508081504 46 233 5.0 12.0 0.00 0.02 0.00 78 1010.7
20260508075004 47 221 5.0 12.0 0.00 0.02 0.00 78 1011.0
20260508074504 47 237 8.0 12.0 0.00 0.02 0.00 78 1011.1
20260508073004 47 235 7.0 12.0 0.00 0.02 0.00 79 1011.0
20260508072504 47 245 7.0 12.0 0.00 0.02 0.00 79 1011.1
20260508072004 47 242 9.0 12.0 0.00 0.03 0.00 80 1011.1
20260508071504 47 236 8.0 12.0 0.00 0.03 0.00 80 1011.1
20260508070005 46 239 7.0 12.0 0.00 0.04 0.00 81 1011.1
20260508065004 46 242 7.0 10.0 0.00 0.05 0.00 82 1011.1
20260508064504 46 223 5.0 7.0 0.00 0.06 0.00 82 1011.1
20260508064004 46 234 5.0 7.0 0.00 0.08 0.00 82 1011.1
20260508063504 46 225 5.0 8.0 0.00 0.08 0.00 82 1011.1
20260508062505 47 239 6.0 8.0 0.00 0.08 0.00 82 1011.1
20260508062004 47 251 6.0 10.0 0.00 0.08 0.00 82 1011.0
20260508061504 47 250 6.0 10.0 0.00 0.08 0.00 83 1011.0
20260508061005 46 235 6.0 8.0 0.00 0.08 0.00 84 1010.9
20260508060005 46 255 6.0 8.0 0.00 0.08 0.00 84 1011.0
20260508055504 46 242 6.0 8.0 0.00 0.08 0.08 84 1010.9
20260508055004 46 244 6.0 9.0 0.00 0.08 0.08 84 1010.9
20260508054004 46 247 7.0 12.0 0.00 0.08 0.08 84 1010.9
20260508053504 46 245 6.0 12.0 0.00 0.08 0.08 84 1010.9
20260508053004 46 245 7.0 10.0 0.00 0.08 0.08 85 1010.8
20260508052004 47 240 6.0 10.0 0.00 0.08 0.08 83 1011.0
20260508051504 47 235 7.0 12.0 0.00 0.08 0.08 84 1011.0
20260508051004 47 267 9.0 12.0 0.00 0.08 0.08 85 1010.9
20260508050004 46 249 5.0 7.0 0.00 0.08 0.08 86 1011.0
20260508045504 46 233 6.0 7.0 0.00 0.08 0.08 86 1011.0
20260508044005 46 241 5.0 6.0 0.00 0.08 0.08 86 1011.0
20260508043005 47 238 3.0 5.0 0.00 0.08 0.08 85 1011.0
20260508042504 47 245 3.0 5.0 0.00 0.08 0.08 85 1011.0
20260508041504 47 255 3.0 5.0 0.00 0.08 0.08 84 1011.0
20260508040004 47 240 5.0 6.0 0.00 0.08 0.08 84 1011.0
20260508035504 47 243 5.0 6.0 0.00 0.08 0.08 85 1010.9
20260508034505 48 261 5.0 6.0 0.00 0.08 0.08 84 1010.7
20260508034005 48 230 4.0 8.0 0.00 0.08 0.08 83 1010.7
20260508033504 48 204 6.0 8.0 0.00 0.08 0.08 82 1010.6
20260508033005 49 203 4.0 9.0 0.00 0.08 0.08 82 1010.6
20260508032005 49 197 6.0 10.0 0.00 0.08 0.08 82 1010.4
20260508031504 49 192 7.0 9.0 0.00 0.08 0.08 82 1010.3
20260508031004 49 193 7.0 9.0 0.00 0.08 0.08 81 1010.2
20260508025004 50 203 3.0 7.0 0.00 0.08 0.08 80 1010.0
20260508024504 50 203 2.0 9.0 0.00 0.08 0.08 80 1009.9
20260508024005 50 202 6.0 9.0 0.01 0.08 0.08 80 1009.7
20260508023505 50 201 3.0 6.0 0.01 0.08 0.08 80 1009.6
20260508023005 50 181 3.0 6.0 0.01 0.08 0.08 80 1009.6
20260508022504 50 163 5.0 9.0 0.01 0.08 0.08 81 1009.5
20260508022004 50 162 5.0 12.0 0.01 0.08 0.08 81 1009.4
20260508021504 51 167 8.0 12.0 0.01 0.08 0.08 80 1009.3
20260508020004 51 177 7.0 12.0 0.01 0.08 0.08 81 1009.3
20260508015504 51 179 9.0 12.0 0.01 0.08 0.08 81 1009.3
20260508015004 51 138 5.0 10.0 0.01 0.08 0.08 82 1009.1
20260508014504 51 164 6.0 10.0 0.01 0.08 0.08 81 1009.4
20260508014004 51 169 7.0 9.0 0.00 0.07 0.07 79 1009.3
20260508013004 51 175 7.0 12.0 0.00 0.07 0.07 78 1009.1
20260508012504 51 166 9.0 12.0 0.00 0.07 0.07 79 1008.8
20260508012004 51 156 7.0 12.0 0.00 0.07 0.07 78 1008.6
20260508011504 51 144 7.0 12.0 0.01 0.07 0.07 77 1008.8
20260508011004 51 143 9.0 12.0 0.01 0.07 0.07 77 1008.6
20260508010004 51 94 6.0 12.0 0.01 0.07 0.07 79 1008.8
20260508005504 51 104 7.0 12.0 0.01 0.07 0.07 80 1008.7
20260508005004 51 90 8.0 12.0 0.01 0.07 0.07 80 1008.5
20260508004504 51 87 9.0 12.0 0.01 0.07 0.07 82 1008.3
20260508003504 50 89 9.0 13.0 0.01 0.07 0.07 83 1008.1
20260508002504 51 44 9.0 18.0 0.01 0.07 0.07 79 1009.0
20260508002004 52 24 13.0 18.0 0.01 0.07 0.07 78 1009.0
20260508001504 53 15 12.0 20.0 0.00 0.06 0.06 74 1009.1
20260508001004 54 17 12.0 20.0 0.00 0.06 0.06 69 1008.9
20260508000004 56 32 14.0 21.0 0.00 0.06 0.06 61 1008.6
20260507235504 57 24 10.0 13.0 0.00 0.06 0.06 56 1008.4
20260507235004 58 26 10.0 13.0 0.00 0.06 0.06 54 1008.0
20260507234504 58 30 9.0 13.0 0.00 0.06 0.06 52 1007.8
20260507234005 59 42 6.0 12.0 0.00 0.06 0.06 50 1007.7
20260507233505 60 35 8.0 12.0 0.00 0.06 0.06 48 1007.6
20260507233005 60 34 7.0 10.0 0.00 0.06 0.06 46 1007.4
20260507231505 61 116 0.0 0.0 0.00 0.06 0.06 46 1007.4
20260507231005 60 134 0.0 0.0 0.00 0.06 0.06 45 1007.4
20260507230005 60 135 1.0 3.0 0.00 0.06 0.06 49 1007.3
20260507225505 59 131 2.0 3.0 0.00 0.06 0.06 52 1007.3
20260507225005 58 128 2.0 3.0 0.00 0.06 0.06 54 1007.3
20260507224505 58 103 2.0 3.0 0.00 0.06 0.06 53 1007.4
20260507224005 57 60 1.0 3.0 0.00 0.06 0.06 55 1007.5
20260507223505 57 28 0.0 3.0 0.00 0.06 0.06 56 1007.4
20260507223005 56 29 1.0 3.0 0.00 0.06 0.06 56 1007.4
20260507222505 56 28 2.0 5.0 0.00 0.06 0.06 58 1007.4
20260507222005 55 26 3.0 9.0 0.00 0.06 0.06 59 1007.5
20260507221505 55 29 5.0 9.0 0.00 0.06 0.06 59 1007.5
20260507221005 55 17 5.0 10.0 0.00 0.06 0.06 61 1007.6
20260507220005 55 27 5.0 14.0 0.00 0.06 0.06 65 1007.6
20260507215505 55 21 7.0 21.0 0.00 0.06 0.06 63 1007.6
20260507214505 56 346 18.0 23.0 0.00 0.06 0.06 56 1007.8
20260507214005 57 358 7.0 18.0 0.00 0.06 0.06 57 1007.7
20260507213005 57 11 12.0 23.0 0.00 0.06 0.06 56 1007.9
20260507212505 59 12 14.0 23.0 0.00 0.06 0.06 51 1007.6
20260507212005 62 22 12.0 23.0 0.00 0.06 0.06 45 1007.6
20260507211506 63 25 7.0 13.0 0.00 0.06 0.06 43 1007.5
20260507211005 63 33 7.0 13.0 0.00 0.06 0.06 43 1007.6
20260507210006 62 27 6.0 13.0 0.00 0.06 0.06 43 1007.5
20260507205505 62 34 7.0 13.0 0.00 0.06 0.06 44 1007.5
20260507204505 63 35 1.0 12.0 0.00 0.06 0.06 44 1007.4
20260507204005 62 24 5.0 13.0 0.00 0.06 0.06 45 1007.4
20260507203505 62 346 4.0 13.0 0.00 0.06 0.06 45 1007.4
20260507203005 62 17 4.0 12.0 0.00 0.06 0.06 43 1007.4
20260507202505 62 10 6.0 10.0 0.00 0.06 0.06 46 1007.4
20260507201005 61 116 1.0 6.0 0.00 0.06 0.06 48 1007.6
20260507200005 59 73 0.0 0.0 0.00 0.06 0.06 51 1007.7
20260507195505 59 73 0.0 3.0 0.00 0.06 0.06 51 1007.6
20260507195005 59 73 1.0 5.0 0.00 0.06 0.06 52 1007.7
20260507194504 58 72 2.0 5.0 0.00 0.06 0.06 55 1007.8
20260507194005 58 53 2.0 5.0 0.00 0.06 0.06 54 1007.8
20260507193505 58 52 2.0 5.0 0.00 0.06 0.06 56 1007.9
20260507193005 58 21 1.0 6.0 0.00 0.06 0.06 58 1008.0
20260507192005 58 75 2.0 7.0 0.00 0.06 0.06 57 1008.0
20260507191505 58 99 1.0 9.0 0.00 0.06 0.06 59 1008.1
20260507191005 58 101 5.0 9.0 0.00 0.06 0.06 60 1008.1
20260507185505 57 82 4.0 8.0 0.00 0.06 0.06 61 1008.2
20260507185006 57 62 5.0 8.0 0.00 0.06 0.06 59 1008.2
20260507184504 57 88 3.0 8.0 0.00 0.06 0.06 60 1008.2
20260507184005 56 63 3.0 8.0 0.00 0.06 0.06 60 1008.3
20260507183505 56 85 4.0 9.0 0.00 0.06 0.06 60 1008.3
20260507183004 56 36 3.0 9.0 0.00 0.06 0.06 61 1008.3
20260507182005 56 43 3.0 9.0 0.00 0.06 0.06 61 1008.2